Weather History for Preston, MN

Change the Weather History Date:

Sunday, December 15, 2013

  Actual Average (KRST) Record (KRST)
Temperature  
Mean Temperature 4 °F 19 °F  
Max Temperature 8 °F 27 °F 52 °F (1913)
Min Temperature 0 °F 12 °F -30 °F (1919)
Degree Days  
Heating Degree Days 61 46  
Month to date heating degree days 645  
Since 1 July heating degree days 2317  
Cooling Degree Days 0 0  
Month to date cooling degree days 0  
Year to date cooling degree days 585  
Moisture  
Dew Point -3 °F    
Average Humidity 72    
Maximum Humidity 81    
Minimum Humidity 60    
Precipitation  
Precipitation 0.00 in 0.04 in 1.12 in (1940)
Month to date precipitation 0.69  
Year to date precipitation 32.48  
Snow  
Snow 0.00 in 0.50 in 4.20 in (1940)
Month to date snowfall 6.4  
Since 1 July snowfall 13.3  
Snow Depth -    
Sea Level Pressure  
Sea Level Pressure 30.04 in    
Wind  
Wind Speed 10 mph (NNW)    
Max Wind Speed 16 mph    
Max Gust Speed 22 mph    
Visibility 10 miles    
Events Snow    
T = Trace of Precipitation, MM = Missing Value Source: NWS Daily Summary

Daily Weather History Graph

Daily Weather History Graph

Search for Another Location

Airport:

Trip Planner

Search our weather history database for the weather conditions in past years. The results will help you decide how hot, cold, wet, or windy it might be!

Date:

Astronomy

Dec. 15, 2013 Rise Set
Actual Time 7:35 AM CST 4:32 PM CST
Civil Twilight 7:02 AM CST 5:05 PM CST
Nautical Twilight 6:26 AM CST 5:41 PM CST
Astronomical Twilight 5:51 AM CST 6:16 PM CST
Moon 3:39 PM CST (12/15) 5:49 AM CST (12/15)
Length of Visible Light 10h 02m
Length of Day
8h 56m
Waxing Gibbous, 98% of the Moon is Illuminated
Dec 15
Waxing Gibbous
Dec 17
Full
Dec 25
Last Quarter
Jan 1
New
Jan 7
First Quarter

Hourly Weather History & Observations

Time (CST) Temp. Windchill Dew Point Humidity Pressure Visibility Wind Dir Wind Speed Gust Speed Precip Events Conditions
12:11 AM 3.2 °F -14.6 °F -1.7 °F 80% 30.02 in 7.0 mi NW 13.8 mph 21.9 mph N/A   Scattered Clouds
12:31 AM 2.5 °F -16.8 °F -2.6 °F 79% 30.03 in 10.0 mi NW 16.1 mph - N/A   Clear
12:51 AM 1.9 °F -16.2 °F -3.1 °F 79% 30.02 in 10.0 mi NW 13.8 mph - N/A   Clear
1:11 AM 1.4 °F -15.3 °F -3.6 °F 79% 30.02 in 10.0 mi NW 11.5 mph - N/A   Clear
1:32 AM 1.2 °F -17.1 °F -3.6 °F 80% 30.02 in 10.0 mi NW 13.8 mph - N/A   Clear
1:51 AM 0.9 °F -16.0 °F -4.0 °F 80% 30.01 in 10.0 mi NW 11.5 mph - N/A   Clear
2:12 AM 0.3 °F -15.8 °F -4.4 °F 81% 30.03 in 10.0 mi NW 10.4 mph - N/A   Clear
2:31 AM 0.1 °F -11.4 °F -4.5 °F 81% 30.03 in 10.0 mi NW 5.8 mph - N/A   Scattered Clouds
2:51 AM 1.0 °F -14.9 °F -4.0 °F 79% 30.02 in 10.0 mi NW 10.4 mph - N/A   Overcast
3:11 AM 1.2 °F -14.7 °F -4.2 °F 78% 30.02 in 10.0 mi NW 10.4 mph - N/A   Overcast
3:31 AM 1.4 °F -14.5 °F -4.0 °F 78% 30.03 in 10.0 mi NNW 10.4 mph - N/A   Overcast
3:52 AM 1.6 °F -15.1 °F -4.0 °F 77% 30.03 in 10.0 mi NW 11.5 mph - N/A   Overcast
4:11 AM 1.9 °F -14.7 °F -4.0 °F 76% 30.03 in 10.0 mi NW 11.5 mph - N/A   Overcast
4:31 AM 1.9 °F -12.9 °F -3.8 °F 77% 30.03 in 10.0 mi NNW 9.2 mph - N/A   Overcast
4:51 AM 1.9 °F -12.9 °F -3.8 °F 77% 30.02 in 10.0 mi NW 9.2 mph - N/A   Overcast
5:11 AM 2.3 °F -13.4 °F -3.3 °F 77% 30.02 in 10.0 mi NW 10.4 mph - N/A   Overcast
5:31 AM 2.3 °F -14.2 °F -3.3 °F 77% 30.03 in 10.0 mi NW 11.5 mph - N/A   Overcast
5:52 AM 2.7 °F -12.9 °F -3.1 °F 77% 30.02 in 10.0 mi NW 10.4 mph - N/A   Overcast
6:11 AM 3.0 °F -12.5 °F -3.1 °F 76% 30.03 in 10.0 mi NW 10.4 mph - N/A   Overcast
6:32 AM 2.8 °F -12.7 °F -3.3 °F 76% 30.03 in 10.0 mi NNW 10.4 mph 16.1 mph N/A   Overcast
6:51 AM 3.0 °F -13.3 °F -3.1 °F 76% 30.03 in 10.0 mi NW 11.5 mph - N/A   Overcast
7:12 AM 3.0 °F -13.3 °F -3.5 °F 74% 30.03 in 10.0 mi NNW 11.5 mph - N/A   Overcast
7:31 AM 2.8 °F -9.5 °F -4.0 °F 73% 30.03 in 10.0 mi NNW 6.9 mph - N/A   Overcast
7:52 AM 2.8 °F -14.3 °F -4.0 °F 73% 30.03 in 10.0 mi NNW 12.7 mph 17.3 mph N/A   Overcast
8:11 AM 3.2 °F -12.2 °F -3.5 °F 74% 30.04 in 10.0 mi NNW 10.4 mph - N/A   Overcast
8:32 AM 3.2 °F -12.2 °F -3.3 °F 74% 30.04 in 10.0 mi NNW 10.4 mph - N/A   Overcast
8:51 AM 3.2 °F -13.9 °F -3.6 °F 73% 30.04 in 10.0 mi NNW 12.7 mph - N/A   Overcast
9:12 AM 3.7 °F -11.6 °F -3.5 °F 72% 30.05 in 10.0 mi NW 10.4 mph - N/A   Overcast
9:31 AM 3.9 °F -10.4 °F -3.3 °F 72% 30.04 in 10.0 mi NNW 9.2 mph - N/A   Overcast
9:52 AM 4.5 °F -7.6 °F -2.9 °F 72% 30.05 in 10.0 mi NW 6.9 mph - N/A   Overcast
10:11 AM 4.8 °F -8.3 °F -2.4 °F 72% 30.07 in 10.0 mi NW 8.1 mph - N/A   Overcast
10:31 AM 4.6 °F -10.4 °F -3.1 °F 70% 30.07 in 10.0 mi NW 10.4 mph - N/A   Overcast
10:51 AM 5.0 °F -10.0 °F -2.7 °F 70% 30.07 in 10.0 mi NNW 10.4 mph - N/A   Overcast
11:11 AM 5.5 °F -9.3 °F -2.9 °F 68% 30.07 in 10.0 mi NNW 10.4 mph - N/A   Overcast
11:31 AM 5.5 °F -9.3 °F -2.4 °F 70% 30.05 in 10.0 mi NW 10.4 mph - N/A   Overcast
11:52 AM 5.9 °F -8.0 °F -2.6 °F 68% 30.05 in 10.0 mi NNW 9.2 mph - N/A   Overcast
12:11 PM 6.8 °F -7.8 °F -2.4 °F 66% 30.04 in 10.0 mi NNW 10.4 mph - N/A   Mostly Cloudy
12:32 PM 7.5 °F -6.0 °F -2.2 °F 65% 30.04 in 10.0 mi NNW 9.2 mph - N/A   Clear
12:51 PM 7.9 °F -2.2 °F -2.0 °F 64% 30.03 in 10.0 mi NNW 5.8 mph - N/A   Clear
1:12 PM 8.1 °F -5.3 °F -2.9 °F 61% 30.03 in 10.0 mi NNW 9.2 mph - N/A   Clear
1:31 PM 7.5 °F -3.9 °F -3.5 °F 61% 30.04 in 10.0 mi NW 6.9 mph - N/A   Scattered Clouds
1:52 PM 7.9 °F -5.5 °F -3.3 °F 60% 30.03 in 10.0 mi NNW 9.2 mph - N/A   Mostly Cloudy
2:11 PM 7.2 °F -4.3 °F -4.0 °F 60% 30.03 in 10.0 mi NNW 6.9 mph - N/A   Mostly Cloudy
2:31 PM 6.8 °F -3.5 °F -3.8 °F 62% 30.03 in 10.0 mi NNW 5.8 mph - N/A   Overcast
2:52 PM 6.3 °F -2.6 °F -4.0 °F 63% 30.03 in 10.0 mi North 4.6 mph - N/A   Scattered Clouds
3:11 PM 7.2 °F -3.0 °F -3.5 °F 62% 30.04 in 10.0 mi NNW 5.8 mph - N/A   Scattered Clouds
3:32 PM 5.9 °F -3.0 °F -3.6 °F 65% 30.03 in 10.0 mi North 4.6 mph - N/A   Mostly Cloudy
3:51 PM 5.5 °F -1.5 °F -4.0 °F 65% 30.04 in 10.0 mi North 3.5 mph - N/A   Scattered Clouds
4:11 PM 5.0 °F -4.1 °F -4.0 °F 66% 30.04 in 10.0 mi NNE 4.6 mph - N/A   Clear
4:32 PM 3.7 °F -3.6 °F -4.7 °F 68% 30.04 in 10.0 mi NNE 3.5 mph - N/A   Clear
4:51 PM 3.2 °F -4.2 °F -4.9 °F 69% 30.05 in 10.0 mi North 3.5 mph - N/A   Clear
5:12 PM 3.0 °F -4.4 °F -4.7 °F 70% 30.05 in 10.0 mi North 3.5 mph - N/A   Clear
5:31 PM 3.0 °F - -4.7 °F 70% 30.06 in 10.0 mi Calm Calm - N/A   Clear
5:52 PM 3.6 °F - -4.0 °F 71% 30.07 in 10.0 mi Calm Calm - N/A   Clear
6:11 PM 3.9 °F - -4.0 °F 70% 30.07 in 10.0 mi Calm Calm - N/A   Scattered Clouds
6:31 PM 4.1 °F -3.2 °F -3.8 °F 70% 30.06 in 10.0 mi NNW 3.5 mph - N/A   Mostly Cloudy
6:51 PM 4.5 °F -2.7 °F -4.0 °F 68% 30.07 in 10.0 mi NNW 3.5 mph - N/A   Overcast
7:11 PM 4.6 °F -4.5 °F -4.0 °F 67% 30.07 in 10.0 mi North 4.6 mph - N/A   Overcast
7:31 PM 4.6 °F -4.5 °F -3.8 °F 68% 30.06 in 10.0 mi North 4.6 mph - N/A   Overcast
7:52 PM 4.8 °F -7.1 °F -3.8 °F 68% 30.07 in 10.0 mi North 6.9 mph - N/A   Overcast
8:11 PM 4.8 °F -2.3 °F -4.0 °F 67% 30.07 in 10.0 mi North 3.5 mph - N/A   Overcast
8:31 PM 4.8 °F -2.3 °F -4.0 °F 67% 30.07 in 10.0 mi North 3.5 mph - N/A   Overcast
8:51 PM 4.8 °F -2.3 °F -3.5 °F 69% 30.06 in 10.0 mi North 3.5 mph - N/A   Overcast
9:12 PM 5.0 °F -4.1 °F -3.6 °F 68% 30.07 in 10.0 mi North 4.6 mph - N/A   Overcast
9:31 PM 5.0 °F -4.1 °F -3.8 °F 67% 30.07 in 10.0 mi NNE 4.6 mph - N/A   Overcast
9:52 PM 4.8 °F -4.3 °F -3.5 °F 69% 30.07 in 7.0 mi NNE 4.6 mph - N/A   Overcast
10:11 PM 4.6 °F -6.0 °F -2.4 °F 73% 30.07 in 4.0 mi NE 5.8 mph - N/A Snow Light Snow
10:32 PM 4.5 °F -2.7 °F -2.2 °F 74% 30.07 in 5.0 mi NNE 3.5 mph - N/A   Haze
10:51 PM 4.1 °F -3.2 °F -2.2 °F 75% 30.07 in 4.0 mi NNE 3.5 mph - N/A Snow Light Snow
11:12 PM 4.1 °F -3.2 °F -2.0 °F 76% 30.07 in 4.0 mi ENE 3.5 mph - N/A Snow Light Snow
11:31 PM 4.1 °F -3.2 °F -2.0 °F 76% 30.07 in 10.0 mi NE 3.5 mph - N/A   Overcast
11:51 PM 4.1 °F -5.1 °F -2.4 °F 75% 30.07 in 10.0 mi ENE 4.6 mph - N/A   Overcast